[[{"header":{"parameterUnit":"m.s-1","parameterCategory":1,"la1":30.2991,"la2":30.254,"lo1":-89.0895,"lo2":-89.0444,"dy":0.0017,"dx":0.0017,"nx":28,"ny":28,"refTime":"2026-01-30T03:00:00:Z","depth":0,"parameterNumber":2,"parameterNumberName":"U-component_of_WINDS"},"data":[0,0,0,0,0,0,0,0,0,0,0,0,0,0,0,0,0,0,0,0,0,0,0,0,0,0,0,0,0,0,0,0,0,0,0,0,0,0,0,0,0,0,0,0,0,0,0,0,0,0,0,0,0,0,0,0,0,0,-2.692,-2.6921,0,-2.699,-2.6991,-2.6992,-2.6969,-2.6968,-2.6966,-2.6965,-2.7035,-2.7038,-2.7041,0,0,0,0,0,0,0,0,0,0,0,0,0,-2.6764,-2.6767,-2.692,-2.6921,-2.6922,-2.699,-2.6991,-2.6992,-2.6969,-2.6968,-2.6966,-2.6964,-2.7033,-2.7037,-2.7041,0,0,0,0,0,0,0,0,0,0,0,0,0,-2.6833,-2.6768,-2.692,-2.6919,-2.6919,-2.699,-2.6991,-2.6992,-2.697,-2.6968,-2.6965,-2.6963,-2.7032,-2.7037,-2.7042,-2.7117,0,0,-2.7057,-2.7059,0,0,0,0,0,0,0,0,-2.6829,-2.6838,-2.6918,-2.6919,-2.692,-2.6969,-2.6962,-2.7034,-2.697,-2.6951,-2.6965,-2.6962,-2.7014,-2.702,-2.7039,-2.712,-2.7123,-2.7057,-2.706,-2.7062,-2.7064,0,0,0,0,0,0,0,-2.6824,-2.6835,-2.6948,-2.6919,-2.692,-2.6914,-2.6921,-2.6975,-2.6994,-2.6952,-2.6951,-2.6959,-2.7014,-2.7034,-2.704,-2.7124,-2.7057,-2.7061,-2.7064,-2.7066,-2.7269,-2.7271,0,0,0,0,0,0,-2.6819,-2.6831,-2.6945,-2.695,-2.6868,-2.6919,-2.6927,-2.6955,-2.6993,-2.6997,-2.6961,-2.6958,-2.7027,-2.7034,-2.7042,-2.7131,-2.7062,-2.7067,-2.707,-2.7267,-2.7269,-2.7272,0,0,0,0,0,0,-2.6816,-2.6829,-2.6943,-2.689,-2.6904,-2.6924,-2.6956,-2.6958,-2.6977,-2.7,-2.7003,-2.6978,-2.7025,-2.7035,-2.7098,-2.7133,-2.7069,-2.7073,-2.7264,-2.7267,-2.7271,-2.731,0,0,0,0,0,0,-2.6811,-2.6828,-2.6858,-2.6891,-2.6907,-2.6998,-2.6958,-2.6961,-2.6986,-2.6983,-2.7017,-2.702,-2.7024,-2.7091,-2.7103,-2.7138,-2.7077,-2.726,-2.7265,-2.727,-2.7305,-2.7314,-2.7322,0,0,0,0,0,-2.6806,-2.6866,-2.6859,-2.6873,-2.6944,-2.7,-2.7009,-2.7013,-2.6989,-2.7018,-2.7033,-2.7019,-2.7128,-2.7098,-2.7111,-2.7148,-2.7258,-2.7264,-2.7269,-2.7301,-2.7312,-2.7322,0,0,0,0,0,0,-2.6835,-2.687,-2.6863,-2.6936,-2.6965,-2.6996,-2.7033,-2.7025,-2.7061,-2.7056,-2.7059,-2.7067,-2.7131,-2.7146,-2.7112,-2.7222,-2.7189,-2.7198,-2.7209,-2.722,-2.7228,-2.7221,-2.7081,0,0,0,0,0,-2.6851,-2.6894,-2.6922,-2.6983,-2.6998,-2.7013,-2.7038,-2.7038,-2.7068,-2.708,-2.71,-2.7129,-2.7169,-2.7196,-2.7235,-2.7308,-2.7314,-2.7341,-2.7349,-2.7356,-2.7362,-2.74,-2.7411,-2.729,-2.729,-2.729,0,0,-2.6882,-2.6906,-2.6933,-2.699,-2.7012,-2.7056,-2.7024,-2.7071,-2.7103,-2.7088,-2.7147,-2.7163,-2.7195,-2.7263,-2.7294,-2.7278,-2.7397,-2.7363,-2.7368,-2.737,-2.7407,-2.7418,-2.7428,-2.7294,-2.7293,-2.7293,0,0,-2.696,-2.6984,-2.7037,-2.706,-2.7095,-2.7105,-2.7118,-2.715,-2.716,-2.722,-2.7209,-2.7247,-2.7317,-2.734,-2.7361,-2.7449,-2.7436,-2.7461,-2.7503,-2.754,-2.755,-2.7558,-2.7586,-2.7597,-2.7468,-2.7468,-2.7468,0,-2.6994,-2.706,-2.7065,-2.7113,-2.7137,-2.7126,-2.7179,-2.7201,-2.7247,-2.7263,-2.7246,-2.7333,-2.7354,-2.7426,-2.7447,-2.7466,-2.7479,-2.7456,-2.7548,-2.7556,-2.7564,-2.7591,-2.7603,-2.7471,-2.7471,-2.747,-2.747,0,-2.7098,-2.7144,-2.7182,-2.7227,-2.7256,-2.7306,-2.7318,-2.7347,-2.7345,-2.7356,-2.7417,-2.7443,-2.7485,-2.7503,-2.7502,-2.7575,-2.7563,-2.7547,-2.7513,-2.7578,-2.7604,-2.7614,-2.7475,-2.7474,-2.7473,-2.7472,0,0,-2.7195,-2.7242,-2.7256,-2.7275,-2.7313,-2.7348,-2.7398,-2.744,-2.7463,-2.7496,-2.7536,-2.7596,-2.7581,-2.7605,-2.7606,-2.7639,-2.7703,-2.7618,-2.7619,-2.7631,-2.7782,-2.7792,-2.7804,-2.7697,-2.7699,-2.7701,-2.7778,0,-2.7274,-2.7361,-2.7367,-2.7445,-2.7486,-2.7477,-2.752,-2.7547,-2.7559,-2.7595,-2.7609,-2.765,-2.7628,-2.7642,-2.7674,-2.7689,-2.7733,-2.7684,-2.7732,-2.7734,-2.7721,-2.7818,-2.7829,-2.7901,-2.7789,-2.779,-2.7792,0,-2.7378,-2.7413,-2.7495,-2.7527,-2.7544,-2.7583,-2.7621,-2.7657,-2.7687,-2.7693,-2.772,-2.7717,-2.7767,-2.7734,-2.7801,-2.7767,-2.7787,-2.7797,-2.78,-2.7802,-2.7764,-2.782,-2.7924,-2.7934,-2.7808,-2.7807,-2.7806,0,-2.7436,-2.7505,-2.7562,-2.758,-2.7619,-2.7645,-2.7663,-2.7691,-2.7716,-2.775,-2.7765,-2.7805,-2.7826,-2.7856,-2.7863,-2.7839,-2.7929,-2.7897,-2.7934,-2.7933,-2.7951,-2.7949,-2.8057,-2.7969,-2.7969,-2.7969,-2.7969,0,-2.7522,-2.7572,-2.7589,-2.7624,-2.7679,-2.7686,-2.774,-2.7756,-2.7781,-2.7818,-2.7814,-2.7848,-2.7857,-2.7893,-2.7899,-2.7952,-2.7963,-2.7968,-2.7968,-2.7966,-2.7965,-2.7978,-2.7972,-2.7972,-2.7971,-2.7971,-2.797,0,-2.7596,-2.761,-2.7671,-2.7703,-2.7712,-2.7751,-2.7778,-2.7811,-2.7823,-2.787,-2.7881,-2.7899,-2.7941,-2.7952,-2.8003,-2.8007,-2.8069,-2.8066,-2.8058,-2.8057,-2.8092,-2.8087,-2.8209,-2.8224,-2.8129,-2.813,-2.8131,0,-2.7648,-2.7686,-2.7722,-2.7747,-2.7765,-2.7806,-2.7831,-2.7839,-2.7865,-2.7903,-2.7931,-2.7973,-2.8006,-2.8074,-2.8091,-2.8129,-2.8125,-2.8165,-2.8131,-2.8127,-2.8122,-2.8119,-2.8121,-2.8171,-2.8172,-2.8173,-2.8173,0,-2.7739,-2.7744,-2.7781,-2.782,-2.785,-2.7881,-2.7911,-2.7932,-2.7944,-2.7974,-2.8017,-2.8043,-2.8094,-2.8135,-2.8174,-2.819,-2.8183,-2.8185,-2.8194,-2.8191,-2.8184,-2.8185,-2.8073,-2.8181,-2.818,-2.818,-2.8179,-2.8179,-2.7801,-2.7834,-2.7864,-2.7905,-2.7929,-2.7957,-2.7989,-2.8005,-2.8041,-2.8084,-2.8087,-2.8133,-2.8162,-2.8213,-2.8232,-2.8268,-2.8255,-2.827,-2.8274,-2.8276,-2.8278,-2.8181,-2.8275,-2.8275,-2.8275,-2.8275,-2.8274,0,-2.7889,-2.7908,-2.7946,-2.7988,-2.802,-2.8012,-2.8045,-2.8071,-2.8112,-2.814,-2.8174,-2.8222,-2.8262,-2.8283,-2.8321,-2.8346,-2.8343,-2.8355,-2.8352,-2.8355,-2.8288,-2.8274,-2.8356,-2.8356,-2.8356,-2.8356,-2.8356,-2.8356,-2.7938,-2.7992,-2.8001,-2.8066,-2.8085,-2.813,-2.8149,-2.8175,-2.8197,-2.8252,-2.8284,-2.8298,-2.8323,-2.8363,-2.8399,-2.8404,-2.8417,-2.843,-2.8433,-2.8369,-2.836,-2.8352,-2.8339,-2.8434,-2.8434,-2.8497,-2.8497,-2.8498]},{"header":{"parameterUnit":"m.s-1","parameterCategory":1,"la1":30.2991,"la2":30.254,"lo1":-89.0895,"lo2":-89.0444,"dy":0.0017,"dx":0.0017,"nx":28,"ny":28,"refTime":"2026-01-30T03:00:00:Z","depth":0,"parameterNumber":3,"parameterNumberName":"V-component_of_WINDS"},"data":[0,0,0,0,0,0,0,0,0,0,0,0,0,0,0,0,0,0,0,0,0,0,0,0,0,0,0,0,0,0,0,0,0,0,0,0,0,0,0,0,0,0,0,0,0,0,0,0,0,0,0,0,0,0,0,0,0,0,0.0315,0.0315,0,0.0296,0.0296,0.0296,0.0314,0.0314,0.0315,0.0316,0.0293,0.0292,0.0291,0,0,0,0,0,0,0,0,0,0,0,0,0,0.0365,0.0364,0.0315,0.0315,0.0315,0.0296,0.0296,0.0296,0.0314,0.0314,0.0315,0.0316,0.0294,0.0292,0.0291,0,0,0,0,0,0,0,0,0,0,0,0,0,0.0345,0.0364,0.0315,0.0322,0.0322,0.0296,0.0296,0.0296,0.0313,0.0315,0.0316,0.0317,0.0294,0.0292,0.029,0.0257,0,0,0.0284,0.0284,0,0,0,0,0,0,0,0,0.0346,0.0343,0.0321,0.0321,0.0321,0.0309,0.0305,0.0282,0.0313,0.0317,0.0316,0.0317,0.0297,0.0295,0.0289,0.0255,0.0254,0.0284,0.0283,0.0282,0.0282,0,0,0,0,0,0,0,0.0347,0.0344,0.0308,0.0321,0.0321,0.0325,0.0323,0.0301,0.0301,0.0316,0.0318,0.0315,0.0298,0.0291,0.0289,0.0254,0.0284,0.0283,0.0281,0.0281,0.0193,0.0192,0,0,0,0,0,0,0.0348,0.0345,0.0308,0.0307,0.0337,0.0323,0.0321,0.0312,0.0301,0.0301,0.0314,0.0316,0.0294,0.0291,0.0288,0.0249,0.0282,0.028,0.0279,0.0195,0.0193,0.0192,0,0,0,0,0,0,0.0349,0.0345,0.0309,0.0326,0.0322,0.0321,0.031,0.0311,0.0304,0.03,0.03,0.0308,0.0294,0.0291,0.0265,0.0248,0.028,0.0278,0.0196,0.0194,0.0193,0.017,0,0,0,0,0,0,0.0351,0.0345,0.0333,0.0326,0.0321,0.0287,0.0309,0.0309,0.0301,0.0303,0.0293,0.0293,0.0295,0.0268,0.0263,0.0246,0.0276,0.0197,0.0195,0.0193,0.0172,0.0167,0.0163,0,0,0,0,0,0.0352,0.0326,0.0332,0.0327,0.0306,0.0286,0.0283,0.0287,0.0299,0.0287,0.0284,0.0293,0.0251,0.0265,0.026,0.0242,0.0199,0.0196,0.0193,0.0174,0.0168,0.0164,0,0,0,0,0,0,0.0329,0.0325,0.0332,0.0302,0.0294,0.0289,0.0273,0.0281,0.0268,0.027,0.0275,0.0272,0.0246,0.0241,0.0257,0.021,0.0227,0.0223,0.0214,0.0208,0.0204,0.0206,0.0275,0,0,0,0,0,0.0321,0.0306,0.0303,0.0277,0.0273,0.0274,0.0265,0.0269,0.0261,0.0257,0.0253,0.0243,0.0228,0.0218,0.0203,0.0171,0.017,0.0157,0.0153,0.0149,0.0146,0.013,0.0124,0.0183,0.0183,0.0183,0,0,0.0303,0.0299,0.0289,0.0273,0.0267,0.0251,0.0271,0.0253,0.0241,0.0254,0.023,0.0226,0.0216,0.0188,0.0175,0.0183,0.0129,0.0146,0.0143,0.0142,0.0127,0.0121,0.0116,0.0182,0.0182,0.0182,0,0,0.0263,0.0258,0.0237,0.0231,0.0223,0.0224,0.0219,0.0213,0.0211,0.0188,0.0198,0.0183,0.0156,0.015,0.0142,0.0101,0.0109,0.0096,0.0074,0.0058,0.0054,0.005,0.0036,0.0031,0.0093,0.0093,0.0093,0,0.0242,0.0219,0.0225,0.0207,0.02,0.0212,0.0191,0.0185,0.0172,0.0166,0.0176,0.0144,0.0138,0.0109,0.0099,0.0092,0.0087,0.0097,0.0054,0.005,0.0046,0.0033,0.0028,0.0091,0.0092,0.0092,0.0092,0,0.0194,0.0178,0.0162,0.0151,0.0141,0.0122,0.0124,0.0114,0.0119,0.0119,0.0095,0.0089,0.0074,0.0067,0.0071,0.0038,0.0044,0.0054,0.0071,0.0039,0.0027,0.0022,0.0089,0.009,0.009,0.0091,0,0,0.0138,0.0132,0.0126,0.0121,0.0114,0.0101,0.0082,0.0069,0.0061,0.0052,0.0036,0.0014,0.0024,0.0016,0.0019,0.0005,-0.0026,0.0017,0.0017,0.001,-0.0061,-0.0068,-0.0074,-0.002,-0.0021,-0.0022,-0.006,0,0.0098,0.0067,0.0072,0.0041,0.0027,0.0039,0.0023,0.0016,0.0016,0.0003,0.0002,-0.0013,0.0001,-0.0004,-0.0017,-0.0019,-0.004,-0.0016,-0.0035,-0.0036,-0.0032,-0.008,-0.0088,-0.0123,-0.0064,-0.0065,-0.0066,0,0.0048,0.0039,0.0007,0.0003,-0.0003,-0.0018,-0.0028,-0.0041,-0.0048,-0.0047,-0.0055,-0.0049,-0.0068,-0.005,-0.0076,-0.006,-0.0068,-0.007,-0.0071,-0.0072,-0.0052,-0.0082,-0.0134,-0.0139,-0.0074,-0.0073,-0.0072,0,0.0011,-0.0009,-0.0031,-0.0035,-0.004,-0.005,-0.0053,-0.0059,-0.0067,-0.0077,-0.0081,-0.0094,-0.0101,-0.0111,-0.0108,-0.0095,-0.0134,-0.0117,-0.0134,-0.0134,-0.0143,-0.0142,-0.0196,-0.0149,-0.0149,-0.0149,-0.0148,0,-0.0033,-0.0053,-0.0047,-0.006,-0.0081,-0.0075,-0.0097,-0.0098,-0.0103,-0.0117,-0.0107,-0.012,-0.0116,-0.0129,-0.0127,-0.0148,-0.0152,-0.0152,-0.0151,-0.0152,-0.0152,-0.0157,-0.0154,-0.015,-0.015,-0.0149,-0.0149,0,-0.0077,-0.0074,-0.0096,-0.0099,-0.01,-0.0116,-0.0118,-0.013,-0.013,-0.0146,-0.015,-0.0149,-0.0164,-0.0162,-0.0179,-0.0177,-0.0203,-0.02,-0.02,-0.0199,-0.0217,-0.0215,-0.0275,-0.0282,-0.0231,-0.0231,-0.0232,0,-0.0106,-0.012,-0.0124,-0.0131,-0.0134,-0.0147,-0.0154,-0.0149,-0.0157,-0.0165,-0.0176,-0.0189,-0.0199,-0.0223,-0.0224,-0.0237,-0.0233,-0.0253,-0.0235,-0.0235,-0.0233,-0.0231,-0.0232,-0.0257,-0.0258,-0.0258,-0.0258,0,-0.0156,-0.0153,-0.0163,-0.0173,-0.0181,-0.0189,-0.0196,-0.0203,-0.0197,-0.0207,-0.0221,-0.0228,-0.0244,-0.0257,-0.0268,-0.0272,-0.0264,-0.0264,-0.0269,-0.027,-0.0269,-0.0269,-0.0209,-0.0263,-0.0262,-0.0262,-0.0262,-0.0262,-0.0193,-0.0204,-0.0208,-0.022,-0.0224,-0.023,-0.0241,-0.0241,-0.0252,-0.0263,-0.0259,-0.0275,-0.0281,-0.0295,-0.0299,-0.0311,-0.0304,-0.0311,-0.0313,-0.0314,-0.0316,-0.0267,-0.0314,-0.0314,-0.0313,-0.0313,-0.0313,0,-0.0241,-0.0243,-0.0253,-0.0262,-0.0271,-0.0262,-0.0268,-0.0277,-0.029,-0.0295,-0.0305,-0.032,-0.0332,-0.0334,-0.0346,-0.0355,-0.0352,-0.0358,-0.0357,-0.0358,-0.0322,-0.0317,-0.0361,-0.0361,-0.0361,-0.0361,-0.0361,-0.0361,-0.0268,-0.0287,-0.0284,-0.0305,-0.0307,-0.0321,-0.0325,-0.0331,-0.0335,-0.0352,-0.0361,-0.0362,-0.0366,-0.0377,-0.0388,-0.0388,-0.0393,-0.04,-0.0399,-0.0366,-0.0361,-0.0356,-0.0351,-0.0401,-0.0401,-0.0434,-0.0434,-0.0434]}]]